Theta_e
339 339 339 338 338 338 337 335 335 334 333 332 331 331 330 329 327 326 325 324 323 322 321 319 318 317 315 313 310 309 309 308 307 306 306 306 305 305 305 305 304 304 303 303 303 303 303 303 303 303 303 303 304 303 303 303 303 302 302 302 302 302 302 301 300 300 299 298 297 296 295 294 295 296 297 297 296 295 296 296 297 297 297 297 297
339 339 338 338 338 337 336 335 334 333 332 332 331 330 329 328 327 326 324 323 322 321 320 319 317 316 314 311 309 308 308 307 306 306 306 306 306 305 305 304 304 304 304 304 305 304 304 304 304 304 303 303 304 304 303 302 302 302 302 301 301 301 300 299 299 299 299 297 296 295 294 294 294 295 296 296 296 296 297 297 298 298 298 298 297
340 339 338 338 338 338 336 334 333 333 332 331 330 329 329 328 326 326 324 323 322 321 320 318 316 315 313 310 309 308 308 307 306 306 306 306 306 305 304 303 304 305 306 306 306 305 304 304 303 304 303 303 304 304 304 303 302 302 301 301 301 300 299 298 298 298 297 296 296 297 296 295 295 295 296 296 297 298 298 298 298 298 298 298 298
340 339 338 338 338 337 336 334 333 332 331 330 330 329 328 327 326 325 324 323 322 320 319 317 316 314 312 310 309 308 308 307 306 306 306 305 305 304 304 303 304 306 305 305 305 304 304 304 304 304 303 302 303 303 303 303 302 301 301 300 299 298 297 297 297 297 297 297 298 298 298 296 296 297 297 298 298 298 298 299 298 298 298 298 297
340 339 338 338 338 337 336 334 332 332 331 330 329 328 328 327 325 324 323 322 321 319 318 317 315 314 312 310 308 308 308 307 306 306 306 306 305 304 303 304 305 305 304 304 303 303 303 304 304 304 303 302 302 302 302 303 302 301 301 299 296 295 296 297 297 298 299 299 299 299 298 297 297 298 298 298 298 299 299 299 298 298 298 298 297
339 339 339 338 337 337 335 334 332 331 331 330 329 328 327 326 325 324 323 322 320 319 317 316 315 313 312 310 308 308 308 307 306 306 306 306 305 304 303 304 305 304 304 304 303 302 303 304 304 304 303 303 302 301 301 301 301 300 298 295 295 296 298 299 299 300 300 300 299 299 298 297 297 298 298 298 298 298 298 298 298 298 298 298 297
339 338 338 338 337 337 335 333 332 331 330 329 328 328 327 326 325 323 322 322 320 318 317 316 315 314 312 310 308 308 307 306 306 306 306 306 306 304 304 305 304 304 304 304 303 303 304 305 305 304 304 303 302 301 299 299 300 298 294 295 298 299 300 300 300 300 300 300 300 299 298 298 298 298 298 299 299 298 298 298 298 298 298 298 298
339 338 338 338 337 336 335 333 332 331 330 329 328 327 326 325 325 323 322 321 320 318 317 316 315 314 312 310 309 308 307 307 307 307 306 306 306 305 304 304 304 303 304 304 304 304 304 305 305 304 304 303 301 298 296 297 298 295 294 297 300 301 301 301 301 301 301 301 300 300 299 298 298 298 299 299 298 298 298 297 298 298 298 298 298
339 338 338 337 337 336 334 333 332 330 329 328 327 326 325 324 324 323 321 320 319 318 317 316 315 313 312 310 309 308 307 307 308 306 306 306 306 305 305 304 304 304 304 304 304 304 304 304 304 304 303 302 299 294 292 294 295 294 296 299 300 301 301 301 301 301 301 301 301 300 299 298 298 298 298 298 298 298 298 298 298 298 298 298 298
339 338 338 337 337 336 334 333 331 330 328 327 327 326 324 324 323 321 320 319 319 318 317 316 314 313 311 310 309 308 307 307 308 306 306 306 306 305 305 304 304 304 304 304 304 304 304 304 304 302 299 297 296 292 292 294 294 295 298 300 301 301 302 302 301 301 301 301 301 300 298 298 298 298 298 298 298 298 299 298 298 298 298 297 298
338 338 338 337 336 335 334 332 330 329 327 326 326 325 324 323 322 321 320 319 318 318 316 315 314 313 311 310 309 308 307 307 308 306 306 306 306 305 305 305 304 304 304 304 304 304 303 304 303 299 295 293 293 293 295 296 296 295 297 300 301 302 302 302 302 302 302 301 300 299 298 298 298 299 298 298 298 298 299 299 298 298 297 296 297
338 338 337 337 336 335 333 331 329 328 327 326 325 324 323 323 321 320 319 319 318 317 316 315 313 312 311 310 309 308 307 307 307 306 306 306 305 305 305 305 304 304 304 304 304 304 304 304 303 300 299 296 293 295 297 298 297 295 295 299 302 302 302 302 302 302 301 300 299 298 298 298 298 299 299 298 298 299 299 299 299 298 298 297 296
338 338 337 336 335 334 332 330 328 327 326 325 324 323 323 322 321 319 318 318 317 316 315 314 313 312 311 310 309 308 308 307 307 307 307 306 305 305 306 305 305 304 304 304 304 304 303 304 303 302 303 300 295 296 298 298 297 295 295 300 303 302 301 302 301 300 298 297 298 298 298 298 298 299 299 299 299 299 299 299 299 299 298 298 297
338 337 336 335 334 333 331 329 328 327 326 325 324 322 322 321 320 319 318 317 316 315 314 314 313 311 310 309 309 309 308 307 307 307 306 305 305 306 306 305 304 304 304 304 304 304 304 304 304 304 303 301 299 299 299 299 299 297 297 301 303 301 301 302 301 299 297 297 298 299 299 298 298 299 300 299 299 299 299 299 299 299 298 298 298
337 336 335 334 333 331 330 329 327 326 325 324 323 322 321 320 319 318 317 316 315 315 314 314 313 311 310 309 309 309 308 307 307 306 305 305 306 306 306 305 305 305 305 304 304 304 303 304 304 304 303 302 301 302 301 302 302 299 297 299 301 301 302 302 300 298 297 298 299 299 299 300 299 300 300 299 299 299 299 299 299 299 299 298 298
336 335 334 333 331 329 329 328 326 325 324 322 322 321 320 319 318 317 316 315 315 314 314 313 312 311 310 309 309 308 308 307 306 304 304 305 306 306 305 306 305 305 305 305 305 305 304 304 304 304 304 303 303 303 303 302 303 301 297 296 298 301 302 301 299 298 298 299 299 299 300 300 300 300 299 299 299 299 299 299 299 299 298 298 298
336 334 333 332 330 328 328 327 326 324 322 321 321 320 319 318 317 316 315 314 314 313 313 313 312 311 310 309 309 308 307 307 305 304 304 305 306 305 306 306 306 306 305 305 305 305 305 305 305 304 304 304 303 303 303 302 302 301 297 293 295 300 301 300 298 298 299 299 300 300 300 300 299 299 299 299 299 299 299 299 299 299 298 297 297
335 333 332 330 329 329 328 327 326 323 321 321 321 320 319 317 316 315 315 315 314 313 313 312 311 311 310 309 309 308 307 306 305 304 305 305 305 305 306 306 306 305 305 306 306 306 306 306 305 305 304 304 303 303 303 302 302 302 298 294 294 297 299 298 298 299 300 300 300 300 299 299 299 299 299 299 299 299 299 299 299 299 298 297 297
334 333 331 329 329 329 328 326 325 323 320 321 321 320 319 317 315 315 315 314 313 312 312 312 311 310 310 309 308 308 307 307 306 305 305 305 305 306 306 306 306 305 305 306 306 306 306 305 305 305 304 304 303 303 302 302 302 301 297 294 293 294 296 298 299 299 299 300 300 300 299 299 299 299 299 299 299 299 299 299 299 299 298 298 298
334 332 330 329 328 328 327 326 324 321 320 321 321 320 318 316 315 314 314 313 313 312 312 311 310 310 309 309 308 308 308 307 306 305 305 305 305 306 306 306 305 304 305 306 306 305 305 305 305 305 304 304 304 303 302 302 302 299 295 293 294 294 295 297 298 299 299 300 300 300 299 299 299 299 299 299 299 299 299 299 299 299 298 298 298
333 331 330 329 327 326 326 324 322 320 320 321 321 319 317 315 314 314 313 313 312 311 310 310 310 309 309 308 308 307 307 307 306 306 306 305 305 306 306 305 305 305 305 305 305 305 305 305 304 304 304 304 304 303 301 301 302 299 295 293 294 294 295 297 298 298 299 299 299 300 300 299 299 299 299 299 299 299 299 299 299 299 299 299 298
332 330 329 327 326 326 325 323 321 320 320 321 319 317 314 314 314 313 312 312 311 309 309 309 309 309 308 308 308 307 307 307 306 306 306 305 305 305 305 305 305 305 305 305 305 305 305 305 304 304 304 304 304 303 302 302 301 298 294 293 294 294 295 297 298 299 299 299 300 300 300 299 299 299 299 299 299 299 299 299 299 299 299 299 299
331 329 328 327 326 325 324 322 320 319 319 319 318 315 313 313 313 312 311 310 309 308 308 308 308 308 308 308 307 307 307 307 307 306 306 306 306 305 304 304 305 305 305 305 305 304 304 303 303 303 304 304 304 303 303 301 299 296 294 293 294 295 296 297 298 299 299 299 300 300 300 299 299 299 299 299 299 299 299 299 299 299 299 299 299
329 327 326 326 325 324 322 320 319 319 319 318 317 315 313 312 312 311 310 309 309 308 307 307 307 307 307 307 308 307 308 307 307 306 307 307 307 306 305 304 304 305 305 304 303 302 302 302 303 303 304 304 304 304 302 298 297 298 297 295 294 295 296 298 298 298 299 299 299 300 300 300 299 299 300 299 299 299 299 298 299 299 299 299 299
327 326 325 325 324 323 320 319 319 319 318 318 317 314 313 312 311 310 309 309 308 307 306 306 306 306 306 307 307 307 307 307 306 306 307 308 307 306 306 305 304 304 304 303 302 302 302 302 303 303 304 303 303 303 301 298 298 300 298 295 294 295 296 297 298 298 298 299 300 300 300 300 300 300 300 300 299 299 299 299 299 299 299 299 299
326 325 325 324 323 322 320 318 319 319 318 317 316 314 313 312 310 309 309 308 307 306 306 306 305 305 306 306 306 305 306 306 306 306 307 307 307 306 306 305 303 303 303 303 302 302 302 302 303 303 303 303 303 303 301 299 299 300 297 295 294 295 295 297 297 298 298 299 300 300 301 301 300 300 300 300 300 299 298 298 299 299 299 299 299
325 324 324 323 322 320 319 318 318 318 316 315 314 313 312 311 310 308 308 307 306 306 306 305 305 305 305 305 305 305 305 304 304 306 307 307 307 307 306 304 302 302 302 302 302 301 302 302 302 303 303 302 303 303 300 299 299 299 297 296 295 295 296 297 297 297 299 299 300 301 301 301 300 300 300 300 299 299 298 298 299 299 299 299 298
325 324 323 323 321 319 318 318 318 316 315 314 313 312 311 310 310 309 308 308 307 307 306 305 305 305 305 304 304 304 304 304 304 306 307 307 306 307 305 303 301 301 302 302 301 301 301 301 302 302 302 302 302 300 299 298 299 300 299 297 296 295 296 296 297 298 300 301 301 301 301 300 300 300 300 300 299 298 298 299 299 299 299 299 298
324 323 322 321 320 318 317 317 316 315 314 314 313 312 312 311 311 310 309 310 310 311 309 307 305 305 304 304 303 303 304 305 306 307 307 306 305 305 305 303 301 299 300 301 301 299 299 300 300 300 300 300 299 298 298 299 300 300 300 298 296 295 296 298 299 301 301 301 301 301 300 300 300 300 300 299 298 298 298 299 299 299 299 298 298
321 320 320 319 318 318 316 315 315 314 313 312 312 311 311 311 311 310 310 310 311 312 311 310 309 307 305 304 304 304 305 305 306 306 306 305 304 305 305 303 301 299 298 299 300 298 298 299 299 298 298 298 298 298 299 300 299 299 298 297 296 297 299 300 300 301 301 301 300 300 300 300 300 300 300 299 298 298 299 299 299 299 298 298 298
319 318 318 317 317 317 316 315 314 313 313 312 311 311 310 309 310 310 310 310 310 310 309 310 310 309 306 305 304 304 305 305 305 306 305 304 304 305 304 303 301 299 297 297 298 297 297 298 299 299 298 299 299 299 299 298 297 297 297 296 298 299 300 300 300 300 301 301 300 301 300 300 300 300 299 299 299 299 299 299 299 299 298 298 298
318 317 316 316 316 315 315 314 313 312 312 311 311 310 309 308 308 308 308 308 308 308 307 307 308 308 307 306 305 305 305 305 304 304 304 304 304 305 304 303 301 300 298 297 297 297 295 295 297 298 299 298 298 298 298 297 297 297 298 298 299 300 300 299 299 300 300 301 301 301 301 300 300 300 299 299 299 299 299 299 299 298 298 298 298
319 316 315 314 314 314 313 313 312 312 311 311 310 309 308 308 307 307 306 306 306 305 305 306 307 307 306 306 305 305 305 304 303 304 304 304 304 303 303 302 301 299 298 298 298 297 295 294 295 297 298 299 298 298 298 297 297 298 299 299 299 299 299 299 298 299 299 300 301 301 301 301 300 300 299 298 298 298 299 299 298 298 298 298 298
319 317 316 314 313 313 313 312 312 312 312 311 310 309 309 308 307 306 305 304 304 304 305 305 306 306 306 305 304 304 303 303 304 304 304 303 302 302 302 301 300 298 298 298 298 297 295 293 293 296 298 298 298 298 298 298 298 299 299 298 297 297 297 298 298 299 300 301 301 301 301 301 300 299 299 298 298 299 299 298 298 298 298 298 298
317 316 317 317 316 315 314 313 313 312 311 311 310 309 308 307 307 306 306 305 304 304 304 305 305 305 305 304 303 302 302 303 304 303 302 302 301 301 300 299 298 297 296 297 297 297 294 292 292 294 297 298 298 298 298 298 298 299 298 297 296 296 297 298 299 300 301 301 301 301 301 300 300 299 299 299 298 298 298 298 298 298 298 298 298
316 315 315 316 316 315 314 313 312 312 311 310 309 309 308 308 307 307 306 305 305 304 304 304 304 304 303 302 302 302 302 302 302 301 301 301 300 300 299 298 296 296 295 295 296 295 293 291 291 292 294 296 297 298 298 298 298 298 297 295 295 296 297 298 300 301 301 301 301 301 301 300 299 299 299 299 298 298 298 298 298 298 298 298 298
317 316 315 314 314 313 312 312 312 311 311 310 309 309 308 308 307 306 305 304 304 304 303 302 302 302 302 302 302 301 301 300 300 300 300 300 299 299 299 298 297 295 294 294 293 292 292 291 291 291 292 293 295 296 297 297 296 296 295 294 294 295 297 299 300 301 301 301 301 301 301 300 299 299 299 299 298 298 298 298 298 298 298 298 298
319 318 316 315 314 313 312 311 311 310 310 310 309 309 308 307 306 305 305 304 303 302 302 301 301 301 300 300 300 300 300 299 299 299 299 299 299 298 298 298 297 294 293 292 293 293 292 292 292 293 293 293 294 294 295 295 295 294 293 293 294 295 297 299 299 300 301 302 302 301 300 300 300 299 299 299 298 298 298 298 298 298 298 298 298
318 317 317 315 314 313 312 311 310 310 309 309 309 308 307 306 305 305 304 303 302 302 301 301 301 301 300 300 299 298 299 300 299 299 299 298 298 298 298 298 297 294 293 293 294 294 294 293 293 294 295 296 295 295 295 295 294 294 294 294 294 295 296 298 299 300 301 302 302 302 301 300 300 299 299 298 298 298 298 298 298 298 298 298 298
316 316 315 314 313 312 311 311 310 309 309 309 308 308 307 306 305 304 303 302 302 301 300 300 301 301 302 301 299 298 298 299 299 299 299 299 298 298 298 298 297 295 294 294 295 295 295 294 294 295 297 297 297 296 296 295 295 295 296 296 296 296 296 298 299 301 302 302 302 301 301 300 299 299 299 299 299 299 299 298 298 298 298 298 298
315 315 314 313 313 312 311 310 310 310 309 309 308 308 307 307 305 304 303 302 301 301 300 300 300 301 302 302 300 298 298 298 298 299 300 299 299 298 298 298 298 296 295 295 295 296 296 296 296 296 297 297 297 296 296 296 297 298 298 298 298 297 298 298 299 301 302 302 301 301 300 300 299 299 299 299 299 299 299 298 298 298 298 298 298
315 314 313 312 312 312 311 311 310 310 309 309 308 308 307 307 306 305 304 302 301 300 300 300 300 300 301 301 299 298 297 297 298 298 299 300 299 299 299 299 299 298 297 297 297 297 297 296 296 296 297 297 297 297 297 298 299 300 300 300 299 299 299 299 300 301 302 301 301 301 300 300 300 300 300 300 299 299 299 298 298 298 298 298 298
316 315 314 313 312 312 312 311 310 309 308 308 308 308 307 306 306 305 304 303 301 300 301 301 300 300 300 300 299 298 298 297 297 298 299 299 300 300 300 300 299 298 298 298 298 298 298 297 297 297 297 296 297 297 299 300 300 300 300 300 300 300 300 300 300 301 301 301 301 301 300 300 300 300 300 300 300 299 299 299 298 299 298 298 299
317 316 315 314 312 312 311 310 309 309 308 308 308 308 307 306 305 305 304 303 302 302 302 302 301 301 301 301 300 299 297 297 297 298 298 299 299 300 300 300 299 299 299 299 299 298 298 297 297 297 297 297 297 298 299 300 300 300 300 300 300 300 301 301 301 301 301 301 301 301 300 300 300 300 300 300 300 300 299 299 299 299 298 298 299
317 316 314 313 311 310 310 310 309 308 308 308 308 308 307 307 306 305 305 304 304 303 303 302 302 301 302 302 302 301 300 298 297 297 298 298 298 299 299 299 299 299 299 299 299 299 298 298 298 298 298 298 298 298 298 299 299 299 299 300 299 299 300 301 301 301 301 301 301 301 300 301 301 301 301 300 300 300 300 299 299 299 299 299 299
316 315 313 312 311 310 310 309 309 309 308 308 308 308 307 307 307 306 305 305 304 304 304 303 302 302 303 303 304 304 304 302 300 298 298 299 299 299 299 299 299 299 299 299 299 299 299 299 299 299 299 299 299 298 298 298 298 298 299 299 300 299 300 300 301 301 301 301 301 301 301 301 300 300 300 301 300 300 300 300 300 299 299 299 299
315 314 313 312 311 310 310 309 309 309 309 308 308 308 308 308 307 307 306 306 305 305 305 304 304 303 304 304 305 305 305 304 303 301 301 301 301 301 301 300 300 300 300 300 300 300 299 299 299 299 299 299 299 299 299 299 298 298 298 299 300 300 300 300 301 301 301 301 301 301 300 300 300 300 300 300 300 300 300 300 300 299 299 299 299
314 314 313 312 311 310 309 309 309 309 309 308 308 309 308 308 308 308 307 307 306 306 306 306 306 305 305 305 305 305 305 305 304 304 304 303 303 303 303 302 302 302 302 301 301 300 300 299 299 299 299 299 299 299 299 299 298 298 298 299 300 300 300 300 300 300 301 301 301 301 300 300 300 300 300 300 300 299 299 299 299 299 299 299 298
315 314 314 313 311 310 310 309 309 309 309 309 309 309 309 309 309 309 308 308 307 307 307 307 308 307 307 306 306 306 305 305 305 305 304 304 304 304 303 303 303 303 302 302 301 300 300 300 299 299 299 299 299 299 298 298 297 297 298 299 300 300 300 300 300 300 301 301 301 301 301 301 300 300 300 299 299 299 299 299 299 299 299 298 298
315 314 313 313 311 310 310 309 309 309 309 308 308 308 309 309 309 309 309 309 308 308 308 308 308 308 308 307 307 306 305 305 305 305 305 304 304 303 303 303 303 302 302 301 300 299 299 299 299 299 299 299 298 298 298 297 298 298 299 300 300 300 300 300 300 301 301 301 301 301 301 301 301 300 299 299 299 299 299 299 298 298 298 298 297
313 313 312 312 311 310 310 309 309 309 309 308 308 308 308 309 309 309 309 309 309 309 309 308 308 309 308 307 307 306 305 305 305 305 304 304 303 303 303 302 302 302 301 300 298 298 298 298 299 299 299 299 299 299 299 299 299 300 300 300 300 300 300 300 301 301 301 301 301 301 301 301 300 300 299 299 299 299 298 298 298 298 297 297 297
Wind_Speed
35 35 35 35 34 33 33 35 36 36 36 36 36 35 34 33 33 31 30 29 28 26 25 24 24 22 21 21 22 22 21 20 20 20 21 21 21 21 22 21 20 20 19 19 19 18 18 18 17 15 15 14 12 12 12 10 10 10 9 8 9 8 7 7 5 3 6 11 14 15 16 16 15 16 17 18 19 20 21 23 26 28 29 31 33
35 35 34 35 34 34 34 35 36 37 36 36 35 34 34 34 34 33 31 30 29 27 26 25 25 23 22 22 23 22 22 22 22 22 22 22 22 22 21 21 21 20 21 20 18 17 17 17 16 14 13 13 12 12 11 10 9 9 8 7 8 8 6 5 6 5 7 11 14 16 17 17 16 16 16 17 19 20 23 26 28 29 30 31 33
35 34 34 34 34 34 35 35 36 37 37 36 35 34 34 35 35 34 33 31 29 27 27 26 25 24 22 23 23 23 23 23 23 23 23 23 22 22 21 21 22 21 20 19 18 17 17 16 15 13 12 13 12 11 11 10 9 8 8 6 5 6 5 4 6 8 8 10 13 16 19 19 19 17 16 17 19 21 24 27 30 31 31 32 33
34 34 34 34 34 34 35 35 36 37 37 36 35 35 35 36 36 35 33 31 30 29 28 27 26 24 24 24 25 24 24 24 24 24 23 23 22 22 22 21 21 21 19 19 18 17 17 16 14 12 12 13 12 10 9 9 8 7 6 5 4 4 5 5 7 8 8 10 13 16 19 20 19 18 17 19 21 23 26 29 31 32 32 33 34
34 34 33 33 34 35 35 36 37 37 37 36 35 36 36 36 36 35 34 32 31 30 29 27 26 25 25 26 26 26 25 24 25 24 23 22 21 21 22 22 21 20 19 17 16 16 17 16 14 12 12 12 12 10 9 7 6 6 5 5 6 6 7 7 8 9 10 12 14 16 19 20 19 18 19 21 23 25 28 31 32 32 33 34 35
34 33 33 33 34 35 35 36 37 38 37 36 36 37 37 37 37 36 34 33 32 32 30 28 27 26 26 26 26 26 25 25 25 25 24 23 21 20 22 22 20 19 18 16 15 16 17 16 13 12 11 10 10 9 8 7 6 4 5 7 8 9 9 10 9 10 11 12 13 16 20 20 19 19 20 23 25 26 28 30 33 34 33 34 34
34 33 33 34 34 35 36 36 37 37 37 37 37 38 38 38 38 37 35 34 33 32 30 29 28 26 26 26 26 26 25 25 25 25 24 23 22 21 22 22 20 18 17 15 15 16 16 15 13 11 10 8 7 7 8 8 6 5 6 8 8 8 9 9 9 10 11 13 13 15 18 18 18 20 22 24 25 26 26 27 30 34 34 34 33
33 33 33 34 34 35 36 36 37 37 37 38 38 38 38 38 38 37 35 34 34 33 31 29 28 27 26 26 26 26 26 26 26 26 25 24 23 22 22 21 20 18 17 16 16 16 15 13 12 10 8 6 4 5 7 8 6 6 7 7 6 6 7 8 9 10 11 12 13 14 16 18 19 20 23 25 25 27 28 26 27 31 33 34 34
33 33 33 34 35 35 35 35 37 37 37 38 39 39 39 39 37 36 36 35 34 32 30 30 29 28 27 27 26 26 27 27 26 26 26 24 24 23 22 22 20 20 19 17 16 15 14 12 10 8 7 6 4 6 7 7 7 7 7 5 4 5 6 7 9 10 11 12 13 14 15 18 19 21 23 25 25 26 29 28 27 30 32 33 35
34 34 33 33 34 35 35 35 36 37 38 38 39 39 38 38 37 36 36 35 34 32 31 30 29 29 28 28 27 27 27 27 26 26 26 25 24 23 22 22 21 20 20 19 17 15 13 11 9 6 6 6 6 7 8 7 7 6 5 3 3 4 6 8 9 10 11 12 12 13 14 17 20 21 22 24 26 27 29 28 28 30 30 27 30
34 34 34 33 34 36 36 36 37 38 38 38 38 39 38 37 36 35 35 35 33 33 32 31 30 29 29 29 29 28 28 27 26 26 25 25 24 22 22 23 22 20 19 19 17 15 13 11 8 6 6 7 8 7 6 5 5 3 3 2 2 4 6 7 9 9 9 10 11 12 13 15 19 21 22 24 26 27 28 29 28 30 28 21 21
34 33 33 34 36 37 37 37 37 37 37 38 39 39 38 37 36 34 34 34 34 33 33 32 30 30 30 30 30 29 28 27 26 26 26 25 22 22 22 22 21 19 19 19 17 16 14 12 10 7 5 6 7 7 5 4 2 1 1 2 1 4 5 6 7 7 7 8 10 11 12 14 18 22 23 24 25 26 26 28 28 28 27 23 21
33 32 33 35 37 38 38 39 39 38 39 39 39 39 38 36 35 34 34 34 34 34 34 32 31 31 31 31 31 30 28 27 27 26 26 24 22 22 22 20 19 20 20 19 17 16 14 13 11 9 6 6 8 7 5 4 1 2 1 3 2 1 3 4 4 5 6 7 8 11 12 14 18 21 22 22 23 25 25 26 28 27 28 27 26
33 32 33 35 37 38 39 40 40 40 41 40 39 38 37 36 35 34 35 34 35 35 34 33 32 32 32 32 31 30 29 28 28 27 25 22 22 23 21 19 19 20 19 18 16 16 15 14 13 11 8 8 9 7 4 3 1 2 0 4 3 0 1 2 4 6 7 7 8 11 13 16 18 19 19 20 22 23 23 24 25 25 27 29 29
32 33 34 35 36 37 39 40 41 41 41 40 40 39 38 36 35 34 34 35 36 36 35 34 33 33 33 32 32 31 29 29 29 27 23 22 22 22 21 20 20 19 18 18 16 15 15 15 13 12 10 9 8 6 3 2 2 3 2 4 3 1 1 1 3 5 6 6 8 12 14 16 17 16 17 19 21 22 21 23 24 24 26 29 30
32 33 35 36 36 37 38 39 39 40 40 40 40 40 37 36 35 35 35 35 35 35 35 35 35 34 33 33 32 32 31 30 29 25 22 23 24 22 20 20 20 19 18 18 17 16 15 15 14 13 10 9 8 7 5 5 5 5 4 4 4 2 3 1 2 3 4 5 8 11 13 14 14 14 16 19 20 21 21 23 25 25 25 25 26
33 34 35 37 38 38 40 40 39 39 40 41 40 38 36 36 35 36 35 35 35 35 35 35 35 35 34 33 33 33 32 31 28 23 22 24 24 22 22 22 20 18 18 18 18 18 17 16 16 14 12 10 9 8 8 7 6 6 5 4 4 5 4 2 1 1 2 4 7 9 11 11 12 13 15 17 20 21 21 23 25 25 24 20 18
33 35 35 37 39 41 41 40 39 39 39 40 40 38 36 36 36 37 38 38 37 37 36 35 34 34 34 34 34 34 33 31 27 23 22 24 24 23 23 22 20 19 19 19 19 18 17 17 18 16 13 11 10 10 9 8 8 7 6 4 4 4 4 2 1 1 1 1 4 7 8 9 11 13 15 17 19 20 21 23 25 24 23 20 17
34 35 35 36 39 42 43 42 40 38 38 39 39 38 37 37 37 38 38 38 37 36 35 34 34 33 34 34 34 34 33 30 26 23 24 25 24 24 23 21 20 20 21 20 18 17 16 17 17 16 13 11 11 11 11 10 9 7 6 5 4 3 3 3 2 2 1 1 5 8 9 10 12 14 15 16 18 19 21 24 25 24 23 23 23
34 35 35 36 37 38 40 40 36 33 34 36 36 37 38 38 37 37 35 34 33 34 34 34 33 33 33 33 33 33 32 29 26 24 26 26 26 26 25 23 21 22 22 20 17 17 17 17 17 16 14 12 12 12 12 12 9 7 6 6 5 3 3 3 2 1 2 4 7 10 9 9 12 14 15 17 18 19 21 24 25 26 25 24 26
33 34 35 37 37 35 35 32 28 30 35 37 35 35 36 37 38 37 34 33 33 32 32 32 32 32 32 32 32 32 30 28 26 26 27 27 27 27 27 25 23 23 22 20 19 19 18 17 16 16 14 13 12 13 14 13 11 9 8 6 5 4 4 4 3 3 4 6 8 10 9 8 11 14 15 17 19 20 22 23 24 27 28 26 26
33 34 35 35 35 34 32 27 27 33 37 36 34 32 31 34 37 36 34 32 31 31 30 30 30 30 30 31 31 30 29 26 26 26 28 28 28 28 28 27 25 23 22 21 20 19 17 17 17 16 15 14 13 13 14 14 13 11 9 6 6 5 5 5 5 5 5 7 9 10 9 8 9 13 15 17 19 20 22 23 24 26 28 29 28
34 34 34 33 32 32 30 27 29 35 35 33 32 31 30 32 34 34 33 31 30 29 29 29 29 28 28 28 28 28 28 27 26 26 27 29 29 29 28 27 26 25 24 23 20 18 18 17 17 16 16 16 15 14 14 13 12 10 7 7 7 7 6 6 7 7 8 9 10 10 10 10 9 10 14 17 18 20 22 22 24 25 27 29 30
33 33 33 32 31 30 28 27 31 35 34 33 33 31 31 32 32 31 31 30 29 28 28 28 28 27 27 27 27 27 28 28 27 26 27 29 29 28 26 27 27 26 25 22 20 18 18 18 18 18 17 17 16 15 14 13 11 9 8 8 8 8 9 9 9 10 11 12 12 12 12 11 11 10 13 16 17 19 21 21 23 25 26 28 29
33 33 33 32 30 28 26 28 32 34 34 34 34 33 32 31 30 30 29 28 28 27 26 26 26 25 26 28 28 28 27 28 28 27 27 29 30 27 25 26 28 28 26 23 19 18 17 18 19 19 19 19 19 18 16 14 12 10 9 9 9 11 12 11 11 13 14 15 15 16 15 14 13 12 12 14 16 17 20 21 22 23 25 27 29
31 31 31 31 30 29 29 30 31 32 33 34 34 34 34 33 31 29 28 28 27 27 27 26 25 25 27 28 28 28 28 29 29 28 29 31 31 27 26 27 28 28 27 24 20 17 16 16 17 18 19 20 22 22 19 16 13 12 11 10 10 12 13 14 14 15 16 17 18 19 18 15 14 14 14 14 15 16 18 20 22 23 25 26 29
29 28 28 27 28 29 31 31 30 29 30 30 29 29 31 31 29 28 28 27 26 25 26 26 25 26 27 26 26 28 30 31 31 30 31 32 31 28 28 28 29 29 28 26 22 19 16 15 15 17 17 19 21 23 20 17 15 13 12 11 11 12 13 15 16 17 18 20 19 19 17 15 14 15 15 14 13 14 15 19 22 24 25 26 26
30 28 28 28 27 28 31 32 31 30 30 30 29 29 29 30 30 31 32 32 30 29 29 28 29 30 28 26 25 26 29 32 33 33 34 34 31 29 29 30 31 31 31 29 25 19 15 14 14 15 16 17 20 22 20 18 17 15 13 13 13 13 14 15 17 19 20 19 18 17 15 14 14 14 13 12 11 11 13 18 22 25 26 25 24
29 28 28 28 27 27 29 30 30 30 30 29 29 29 31 33 33 33 34 35 35 35 34 32 32 32 30 29 29 28 29 33 36 35 35 33 31 30 30 31 33 33 33 32 27 20 15 14 14 14 15 17 19 20 20 18 17 15 15 14 14 14 14 16 18 18 17 16 15 15 14 14 14 13 11 9 8 9 12 18 22 25 25 24 23
27 26 26 27 27 27 28 27 27 28 28 27 26 25 26 29 30 30 31 33 34 34 33 33 33 33 32 32 33 32 32 34 36 34 32 30 29 29 29 30 31 32 32 31 27 22 19 17 16 16 17 18 19 20 19 18 17 16 16 15 14 14 14 15 16 16 16 15 15 14 14 14 15 13 9 8 7 8 12 17 22 23 23 22 22
25 24 25 26 28 29 29 28 27 26 26 26 26 24 23 23 25 27 28 30 31 31 31 30 30 31 31 31 32 32 31 31 30 30 29 28 27 27 28 29 30 31 31 30 27 25 24 22 21 20 20 20 20 19 18 17 16 16 15 15 14 15 14 14 14 16 17 17 16 15 15 16 16 13 9 7 8 9 11 16 20 21 20 20 22
25 24 25 27 28 29 28 28 27 26 25 25 24 24 22 20 20 22 24 26 29 30 30 29 28 28 29 30 31 31 30 28 26 24 24 25 26 26 27 28 29 30 30 29 28 28 27 26 25 24 22 22 22 20 18 17 16 15 15 15 16 16 15 14 15 16 17 18 18 17 18 18 17 13 9 8 9 10 12 15 17 17 18 20 22
29 26 26 27 28 27 27 27 27 26 26 26 25 25 24 23 22 21 21 21 23 25 26 27 28 28 28 29 29 29 28 27 25 22 21 22 23 24 25 26 28 29 29 29 28 29 28 28 28 27 26 25 24 21 19 18 17 16 16 17 17 17 16 15 16 17 18 19 18 17 17 18 15 11 8 9 10 10 11 12 14 15 17 20 23
32 31 30 30 28 26 26 27 27 27 27 28 28 28 27 26 24 22 20 18 19 21 25 27 28 28 28 29 29 27 26 24 22 21 21 21 21 22 23 24 26 27 29 30 30 30 29 30 30 29 28 27 25 23 21 20 19 18 18 18 17 16 16 16 17 18 18 17 15 14 14 14 12 9 8 8 9 9 9 10 11 14 16 20 23
28 31 33 34 32 30 30 30 29 29 29 28 28 26 24 22 22 23 24 24 24 24 26 28 29 28 28 27 26 25 23 22 22 21 21 20 20 21 23 25 25 26 28 29 30 31 31 31 31 31 30 28 26 24 23 22 21 19 19 19 17 16 16 16 17 17 17 16 14 12 12 12 11 9 7 8 7 7 8 9 11 13 17 20 23
27 29 31 32 31 31 31 31 31 31 30 29 27 26 25 25 26 26 26 26 26 26 26 27 28 27 27 27 26 24 23 22 22 21 21 20 21 23 25 26 26 27 28 29 30 31 31 32 32 31 30 30 29 27 26 24 23 22 22 21 19 18 18 17 16 16 17 17 16 13 12 13 12 9 7 7 7 7 8 10 12 14 18 21 23
29 30 30 29 28 27 28 29 29 30 30 29 29 29 29 29 29 27 25 24 24 24 23 24 25 26 26 26 26 25 23 21 21 22 21 22 23 25 26 26 26 28 29 30 30 31 31 31 30 30 29 30 30 29 28 27 26 25 24 23 21 20 19 17 15 16 17 18 17 15 13 14 12 9 8 8 8 8 9 11 14 16 18 20 22
31 31 32 30 28 27 27 27 27 28 28 28 28 28 28 27 27 26 25 24 24 23 22 24 26 27 27 26 26 24 23 23 23 24 24 25 26 27 27 27 27 28 29 30 30 30 30 29 29 27 26 25 26 27 27 26 25 25 24 22 21 20 19 18 17 16 17 17 17 16 15 14 12 10 9 9 8 9 10 13 14 16 16 18 19
29 30 30 30 28 26 26 25 26 26 27 26 25 25 25 24 25 26 25 25 25 25 24 25 28 29 29 27 26 24 23 24 25 25 26 27 27 28 28 28 28 28 29 29 29 29 28 28 27 25 24 23 23 23 23 24 24 23 23 22 21 21 20 20 19 17 16 16 15 15 15 14 12 10 10 9 8 10 11 12 13 14 15 18 19
27 27 28 27 26 25 24 25 25 26 26 25 24 24 25 25 25 26 25 24 25 26 26 26 28 31 31 29 28 26 25 25 25 25 26 27 29 30 30 30 30 29 29 28 28 28 27 27 26 25 24 23 23 22 22 23 23 22 22 22 22 22 21 19 18 17 15 14 13 13 13 13 11 11 10 9 9 10 10 10 11 13 16 18 18
26 26 26 26 25 23 23 23 25 26 27 26 25 25 26 26 25 25 25 25 25 26 26 26 27 30 31 31 30 29 28 27 26 26 26 27 30 32 32 32 31 30 30 29 28 28 27 27 26 25 25 24 24 23 23 22 21 21 20 20 20 20 19 19 19 17 14 12 12 12 13 12 11 10 10 10 10 10 10 10 12 14 16 16 16
25 25 25 24 23 23 23 24 25 25 26 26 25 25 26 26 25 24 25 25 26 25 25 25 25 27 29 30 29 29 29 28 26 26 26 27 30 32 33 34 33 32 31 30 29 28 27 27 27 26 25 25 24 23 23 22 20 19 19 19 19 19 19 20 20 17 13 10 10 12 13 12 11 11 12 12 11 10 10 11 12 15 16 15 15
24 24 24 23 23 22 23 23 23 24 24 25 25 25 25 24 24 24 24 25 25 25 26 25 24 24 26 27 28 28 28 27 27 27 27 28 30 32 33 34 34 33 33 31 30 29 28 28 27 26 25 24 24 23 22 20 19 18 18 18 18 17 18 17 16 14 12 11 11 13 13 13 13 13 14 15 14 12 11 12 14 16 17 16 15
21 21 22 22 22 22 22 22 23 24 25 25 24 24 24 23 22 23 24 25 25 27 27 26 24 24 26 27 27 27 28 28 28 28 28 29 30 31 33 34 34 34 34 34 32 31 30 30 28 27 25 24 23 23 22 22 21 20 19 18 16 15 14 14 13 12 10 11 12 13 14 14 15 16 17 17 17 16 14 14 15 17 18 16 15
19 20 22 22 22 21 20 21 21 22 22 22 21 21 23 23 23 23 25 25 26 26 27 26 25 26 27 28 27 27 29 30 30 30 30 30 31 31 32 33 34 35 35 35 34 33 32 32 30 29 27 26 25 24 24 24 24 23 20 19 18 17 16 15 12 9 8 8 9 10 12 13 14 16 18 18 19 19 17 16 17 18 18 17 16
18 19 21 21 21 20 20 20 20 20 20 20 20 20 22 23 24 24 26 26 25 26 27 27 27 27 28 28 28 28 29 30 32 32 32 32 32 32 32 32 33 34 34 34 34 34 34 33 32 31 30 29 28 27 26 26 26 24 23 21 21 20 19 16 13 11 10 11 11 10 10 11 12 14 15 16 17 16 15 16 17 18 18 17 16
16 17 18 19 19 19 19 19 19 20 20 20 20 20 22 24 24 24 25 26 25 25 27 28 28 28 28 28 29 29 29 31 32 32 32 32 32 31 31 31 32 32 32 32 32 33 33 34 34 34 34 33 32 31 30 29 28 27 25 22 21 20 17 15 15 15 15 15 14 12 11 11 12 13 13 12 12 11 12 13 15 16 17 17 15
15 14 15 16 17 18 18 18 19 20 20 21 21 22 23 24 24 23 24 25 26 26 26 26 27 27 27 28 29 29 29 30 31 31 32 32 31 30 30 30 29 29 28 28 28 28 29 30 32 33 34 34 34 33 32 31 29 27 24 22 20 20 18 17 16 16 16 16 17 16 14 14 14 13 11 10 10 11 11 12 14 15 16 16 14
15 15 15 16 18 19 19 20 21 22 22 23 23 22 22 22 23 24 24 25 26 26 25 25 25 25 25 26 28 28 29 29 30 30 31 30 28 27 27 26 27 26 26 25 24 24 24 25 25 27 28 30 30 29 28 27 26 24 23 21 20 20 20 19 18 17 17 18 18 17 16 16 15 13 12 11 11 12 13 13 14 15 15 15 14
18 17 17 19 20 21 21 21 22 23 23 22 22 22 22 22 22 22 23 23 23 24 25 25 25 24 24 25 25 25 26 26 27 27 27 26 25 24 23 24 24 25 24 22 22 22 22 22 22 23 23 24 24 23 22 21 21 21 21 20 19 19 18 18 18 17 18 18 18 17 17 17 15 14 13 12 12 13 13 14 14 15 15 14 13
20 19 19 20 20 20 21 21 22 22 22 21 21 22 22 22 23 22 22 21 22 22 23 23 23 24 25 25 25 25 25 24 23 22 22 22 21 21 21 21 21 22 22 22 21 21 22 22 21 21 21 21 21 20 19 19 19 19 19 18 18 17 17 18 17 17 16 17 18 18 17 15 13 13 13 13 13 13 14 14 14 14 14 13 12
Wind_Direction
189 189 189 190 190 191 191 190 191 192 192 192 192 191 192 191 189 189 189 190 192 193 193 193 194 194 193 193 192 190 189 188 187 186 183 179 176 174 172 171 164 155 152 150 149 148 143 137 135 135 138 133 125 125 122 119 118 110 102 98 88 75 62 66 69 30 14 17 12 9 6 1 1 5 3 355 351 354 0 4 5 2 359 357 357
190 190 189 189 189 189 191 190 189 190 190 190 190 190 190 190 189 190 189 190 192 193 193 194 195 194 192 192 191 190 190 189 186 186 183 179 175 173 172 169 163 157 155 153 152 151 146 140 137 138 143 139 129 126 126 125 125 119 109 103 90 73 56 49 58 48 18 16 19 16 14 11 7 6 4 359 359 3 3 3 2 359 356 355 354
190 190 188 188 188 187 189 189 188 189 189 188 188 188 188 189 190 190 189 189 191 193 195 194 193 193 192 191 190 190 190 188 187 187 185 181 177 175 173 171 165 162 161 160 159 157 150 144 142 144 148 147 140 133 131 129 128 123 112 105 92 73 60 46 54 52 27 17 20 15 13 13 12 12 11 9 7 4 359 357 357 356 355 354 353
189 189 188 187 187 186 188 187 186 187 187 186 186 186 186 188 189 189 188 188 190 193 196 196 194 193 193 191 190 190 189 188 187 188 186 183 179 175 173 171 169 168 168 165 164 164 159 153 151 154 154 151 148 145 142 139 134 129 118 105 89 74 70 61 53 49 37 23 16 12 9 8 12 17 15 9 6 2 357 354 354 355 356 354 353
189 189 188 186 185 186 186 186 186 186 185 185 185 184 185 186 188 188 188 188 190 192 194 195 195 194 193 191 190 190 190 189 187 186 185 183 179 175 173 173 172 172 170 166 164 164 163 159 157 159 159 153 151 155 156 150 144 138 119 93 84 81 79 70 55 46 37 24 11 7 6 7 13 19 12 0 357 357 356 355 355 355 354 354 355
189 188 186 185 184 185 186 186 185 185 184 183 184 184 184 186 187 188 189 189 190 192 193 194 195 195 194 193 192 191 190 189 187 185 184 182 178 175 175 175 174 173 170 166 164 163 162 160 161 166 167 160 157 164 168 164 156 141 112 96 93 88 78 66 51 37 27 19 9 1 3 5 7 9 7 359 353 351 350 351 356 358 353 350 354
187 187 185 184 184 185 186 186 184 184 183 183 183 183 183 185 187 189 190 190 191 192 192 194 196 196 195 194 193 193 191 188 187 184 183 183 180 176 176 176 175 174 173 169 164 164 165 165 167 170 172 171 168 170 175 176 165 135 113 106 100 87 69 54 38 26 16 9 3 357 358 1 359 357 360 359 355 354 349 345 348 353 352 347 347
186 186 186 186 185 186 186 185 184 184 183 182 182 183 183 185 187 189 191 191 192 193 193 195 196 195 196 195 195 194 192 189 187 185 184 183 181 179 179 178 174 171 171 170 167 168 170 171 174 177 181 185 177 165 168 173 164 139 125 114 98 76 58 40 23 14 6 358 356 353 350 354 354 353 355 355 352 351 350 343 337 341 344 343 345
185 185 187 187 186 186 185 184 184 183 182 181 181 183 184 184 186 188 190 192 193 194 195 196 194 194 195 195 195 195 193 190 189 187 185 183 184 183 181 178 174 169 169 171 171 173 175 176 180 188 198 201 181 154 151 153 151 142 132 117 89 61 40 25 13 4 357 351 350 349 346 347 348 347 347 348 345 342 345 342 336 336 337 338 345
184 186 188 188 185 184 184 184 182 181 181 180 181 183 184 184 185 186 189 191 193 194 195 196 195 194 194 194 194 194 194 193 191 190 188 186 186 185 182 180 177 172 172 173 174 176 178 180 185 191 198 195 176 156 148 147 150 150 142 122 78 41 19 13 7 355 349 345 343 342 340 340 345 344 341 343 343 341 341 339 335 335 336 334 341
185 187 189 187 183 182 183 182 181 180 180 180 181 183 185 185 185 187 189 191 193 194 195 195 196 196 194 194 194 193 194 194 192 191 191 190 189 186 182 182 180 178 180 180 178 178 178 180 184 181 174 175 169 160 157 157 155 152 150 139 57 19 7 4 359 352 346 342 341 342 335 333 341 344 340 340 341 341 342 341 337 334 334 331 330
185 188 189 185 183 183 182 180 179 178 179 180 182 184 185 185 185 186 189 191 192 194 195 195 195 196 195 195 194 194 195 195 192 191 191 192 192 189 185 184 184 185 187 186 183 181 181 182 185 181 168 171 175 176 180 180 158 91 104 152 81 15 3 356 358 1 356 345 341 344 338 333 337 341 340 338 337 341 344 344 342 336 332 329 322
184 186 187 184 183 184 182 179 178 179 180 181 182 183 184 184 185 186 188 190 191 192 193 194 195 195 196 196 195 194 194 194 193 192 192 194 194 191 189 190 191 190 189 189 189 188 188 189 190 188 178 171 180 189 192 183 142 34 77 164 158 26 356 357 13 20 14 359 346 345 343 336 334 340 346 343 337 340 343 342 344 340 334 332 327
183 185 186 185 185 185 182 179 179 180 181 181 182 183 184 184 186 187 188 188 189 191 192 193 194 196 197 197 195 194 194 194 193 192 194 196 194 193 195 195 195 194 193 194 195 195 196 197 195 193 186 178 184 194 192 175 159 349 281 183 184 300 7 32 30 18 12 6 351 346 347 343 339 345 357 356 346 344 343 340 342 340 336 338 338
182 183 184 185 186 185 182 180 181 181 180 180 181 183 183 183 185 187 188 188 190 192 193 193 193 196 197 197 195 193 194 194 193 194 196 194 193 196 198 197 197 198 199 201 202 203 204 205 204 201 195 191 196 202 203 207 255 301 275 221 228 238 144 110 15 7 5 359 348 347 349 350 350 355 4 2 354 352 351 347 346 342 338 343 346
180 182 183 185 185 183 182 182 182 180 178 178 180 181 181 181 184 186 187 188 190 192 192 192 193 195 196 197 195 193 194 194 194 196 197 194 194 198 199 200 201 202 203 206 211 213 213 210 208 206 203 203 206 210 219 238 262 282 284 267 251 210 188 239 342 3 357 347 347 350 351 353 357 3 5 0 356 357 358 355 352 348 341 342 345
181 183 186 186 184 183 184 185 184 181 178 177 179 180 179 180 183 184 184 186 189 192 193 192 194 195 195 195 194 193 192 193 196 198 197 195 198 199 199 201 203 204 208 211 214 218 221 219 213 208 208 210 213 216 223 238 261 277 291 292 254 213 214 249 311 7 346 340 347 353 355 359 4 6 3 359 357 359 357 353 352 348 343 341 339
183 185 187 187 184 185 187 188 186 182 178 176 177 178 178 181 183 184 186 188 191 193 193 191 193 196 196 195 195 194 193 194 198 200 196 197 201 200 199 201 201 205 213 216 217 222 226 222 214 209 211 214 215 217 224 239 260 275 284 286 259 226 219 216 161 133 143 338 353 0 5 8 8 5 360 358 0 360 355 351 351 348 344 341 335
186 186 188 187 186 188 189 190 189 183 176 174 176 178 179 182 183 185 188 191 190 190 191 190 190 193 196 197 197 196 196 197 198 197 196 199 202 200 200 200 201 208 216 215 214 215 213 208 206 209 215 219 218 220 228 241 260 274 273 266 258 226 192 177 142 107 87 4 351 355 1 7 8 3 357 358 360 359 357 355 353 350 346 342 341
188 187 187 189 190 192 191 190 187 179 171 173 178 180 181 181 182 184 187 189 188 188 190 190 188 190 194 197 197 197 199 199 198 198 199 201 202 202 203 203 204 210 215 210 202 199 197 200 207 214 219 224 227 231 237 244 255 268 267 258 253 228 190 192 212 306 331 333 336 340 345 359 7 3 356 357 359 358 359 359 355 352 349 344 345
186 185 186 189 191 193 192 188 180 171 172 177 180 182 181 179 179 182 185 186 187 188 187 186 186 189 193 196 197 198 202 204 202 202 203 204 204 205 207 209 210 210 209 207 204 203 204 209 216 218 220 229 237 240 241 244 252 263 267 256 246 238 220 216 237 272 295 308 319 327 332 348 5 4 355 354 357 356 356 358 357 355 352 346 346
183 184 185 187 189 190 189 184 174 171 176 179 178 177 178 177 178 181 183 185 186 184 182 182 183 186 191 197 200 201 203 206 208 207 206 207 209 210 211 214 215 212 206 204 207 211 217 224 225 221 222 231 239 242 243 247 252 259 261 249 238 242 239 232 245 266 283 296 306 316 322 326 349 1 356 351 354 353 351 353 355 355 354 351 348
181 181 183 185 187 187 185 179 169 169 174 177 175 173 175 176 178 180 182 182 181 179 180 182 182 184 189 196 202 205 205 207 212 212 209 208 210 214 216 217 219 217 212 209 211 217 222 226 226 224 225 232 237 242 245 247 247 248 248 240 236 242 244 245 253 265 277 286 293 304 314 311 318 345 353 349 348 347 346 346 348 351 353 353 353
177 177 179 182 184 183 180 171 166 169 174 176 174 173 175 176 177 180 181 180 178 179 182 183 183 184 187 193 200 205 205 206 211 214 212 209 209 214 220 221 221 221 217 214 217 221 223 226 227 227 229 232 236 241 244 239 236 239 242 240 237 241 246 251 258 269 277 280 284 293 304 304 300 318 341 345 342 342 343 342 343 348 350 350 352
174 174 176 179 179 176 170 164 166 173 176 176 176 176 176 175 176 179 181 180 180 182 182 183 184 185 189 196 203 204 205 207 210 213 215 213 211 215 222 223 222 220 218 217 219 222 224 228 228 228 230 233 235 238 238 232 232 241 247 243 239 242 247 252 260 269 275 276 282 290 295 296 294 299 319 332 333 337 340 340 341 347 349 348 350
172 172 174 176 175 171 166 163 168 175 177 178 180 179 178 178 177 178 180 182 184 184 181 182 185 189 195 202 206 207 209 212 214 215 216 214 212 217 223 222 220 220 220 219 220 222 223 223 224 226 230 233 234 235 233 230 233 243 249 247 245 245 249 255 262 269 274 278 284 290 292 290 287 286 298 315 325 333 339 338 339 344 346 344 345
167 166 168 170 169 165 163 165 169 174 175 177 178 178 179 179 178 177 180 182 183 182 182 185 189 193 198 203 206 209 213 215 217 218 215 211 211 216 220 219 217 218 218 217 218 221 221 220 220 223 227 231 232 231 229 228 233 243 252 255 255 255 258 262 267 272 276 280 284 288 290 287 280 278 287 303 320 332 337 335 336 340 342 340 340
166 165 167 168 167 165 165 169 171 172 175 177 177 178 179 180 182 185 188 187 185 185 188 192 195 197 199 201 202 206 211 215 216 215 211 208 210 215 217 218 218 218 218 217 217 218 221 219 215 215 218 221 221 219 221 225 232 243 255 259 261 263 265 269 274 275 275 277 281 282 282 280 276 275 283 299 320 334 333 331 334 338 338 337 336
163 164 166 166 166 165 167 170 172 171 173 176 178 181 184 187 189 192 195 196 198 198 198 200 201 202 202 202 201 200 204 212 215 213 210 211 214 216 217 218 219 220 221 220 217 214 213 210 204 202 202 203 205 210 217 227 236 246 256 262 265 267 269 275 278 275 269 270 273 273 271 272 274 275 281 296 318 332 330 330 333 336 336 335 335
156 159 161 161 163 165 167 169 171 171 171 173 175 180 187 192 195 196 199 203 206 208 209 210 210 208 206 207 208 207 209 215 216 213 213 218 221 222 222 222 222 223 222 221 219 217 214 208 201 199 199 200 206 214 222 232 244 252 258 263 265 266 273 281 281 272 264 262 264 264 264 268 271 272 277 290 308 324 329 331 333 334 335 335 333
151 154 158 162 166 168 169 169 170 171 172 173 174 177 182 191 198 202 205 207 209 212 215 217 217 215 212 211 213 214 216 220 220 218 219 222 223 224 225 224 225 225 223 220 218 218 218 215 211 209 209 212 216 222 228 237 246 252 258 261 260 261 268 277 277 269 261 260 262 261 262 267 270 268 270 283 300 318 329 331 331 334 336 336 332
154 157 162 166 169 170 169 169 169 169 170 173 176 178 178 182 191 201 209 212 213 214 216 216 218 219 218 216 215 215 217 222 225 227 227 225 225 226 227 227 227 226 223 220 218 219 220 219 217 217 217 218 221 225 233 241 245 248 253 256 256 258 263 271 281 280 271 266 267 267 268 271 269 263 261 277 296 316 329 329 330 333 336 336 334
161 161 163 166 168 169 168 168 168 169 171 174 179 182 182 182 186 192 200 208 212 216 218 219 221 222 222 222 222 222 224 227 230 231 229 227 227 229 229 230 230 227 222 217 217 219 221 220 221 222 222 223 225 227 234 243 246 248 253 258 262 264 266 274 287 291 284 275 271 270 273 274 266 253 257 281 300 318 328 326 329 334 335 333 332
167 169 171 170 168 168 170 171 172 176 179 182 185 186 187 189 188 185 184 188 198 209 217 221 223 225 226 226 226 227 230 232 231 230 229 229 228 227 227 227 227 225 223 220 219 220 221 221 223 225 225 226 228 230 236 243 247 250 256 262 267 270 271 278 287 289 282 273 266 268 274 269 251 241 261 289 306 319 323 323 328 332 331 328 327
169 173 176 176 176 178 180 180 181 183 185 187 187 186 185 186 186 186 188 189 193 202 211 216 219 223 226 226 226 227 229 230 230 231 232 230 225 221 219 218 216 216 218 220 221 223 224 224 225 226 227 228 230 232 237 242 246 251 256 260 266 270 272 279 286 284 274 263 259 267 269 249 229 237 272 296 308 312 313 320 327 326 323 322 323
173 175 177 179 181 182 183 184 185 186 187 187 186 184 184 187 190 194 197 198 198 202 208 211 214 218 222 224 225 225 226 229 231 232 231 228 222 217 213 212 212 212 214 217 221 225 227 229 230 229 230 230 231 234 239 243 246 251 255 258 264 270 272 276 284 284 273 261 258 264 255 231 225 245 274 288 297 302 307 316 321 319 318 318 320
178 179 180 182 184 184 183 185 187 188 189 187 185 186 188 191 193 195 198 202 204 205 204 205 207 211 215 219 221 223 224 226 227 227 226 225 222 219 216 216 215 214 215 217 221 224 227 230 232 233 234 235 235 238 241 244 248 252 254 256 260 264 267 272 283 287 277 264 258 255 242 228 233 254 270 275 287 301 309 313 314 315 317 318 320
185 186 185 186 187 186 186 186 188 189 189 187 186 187 189 191 193 195 198 202 206 206 202 200 201 204 207 210 213 216 216 215 216 217 218 218 217 217 217 219 219 218 218 219 220 222 225 228 231 233 235 236 237 238 241 244 249 251 253 255 257 259 262 267 275 282 277 263 253 246 239 235 241 255 263 270 285 298 304 309 313 316 318 320 322
187 189 189 189 189 188 187 186 187 187 187 187 188 189 189 191 194 196 197 199 202 203 201 200 202 205 207 207 207 207 207 208 210 212 214 216 216 215 216 219 220 221 222 222 222 223 225 227 229 230 232 233 235 238 243 248 251 253 256 258 260 260 261 263 270 275 270 258 249 243 238 239 245 252 257 267 282 292 298 306 313 316 316 319 324
184 187 188 188 187 188 188 187 186 187 187 189 190 191 192 194 196 196 196 197 200 202 202 202 204 207 209 209 209 207 207 209 212 214 216 216 216 215 215 218 221 224 225 225 226 227 229 230 230 230 231 233 238 244 250 254 256 259 261 263 264 262 260 263 272 275 264 252 247 240 234 238 245 250 258 271 282 291 297 303 307 309 313 317 322
181 182 183 185 186 186 186 187 189 191 191 192 193 195 196 198 197 196 196 199 204 204 203 204 207 209 211 213 214 213 214 216 216 217 218 219 217 215 216 219 223 226 227 228 229 230 232 233 234 233 234 237 244 250 254 256 258 261 264 265 264 261 260 265 273 271 255 240 239 236 234 240 247 252 265 278 283 286 292 296 299 304 309 314 319
180 179 178 181 184 185 186 189 193 194 194 194 196 199 200 199 198 197 198 202 207 206 203 205 211 213 214 216 218 219 221 223 222 221 221 221 220 219 219 222 226 228 230 231 232 233 234 235 236 236 238 242 247 251 253 254 258 264 269 271 269 267 269 273 272 261 241 230 236 237 236 242 250 260 273 281 281 282 287 290 294 300 304 307 314
181 180 180 183 186 189 191 193 192 192 194 196 198 200 201 200 199 200 201 203 206 205 204 207 212 215 216 219 222 223 224 225 225 225 225 223 223 223 224 227 229 231 232 234 236 237 238 239 239 240 242 244 246 248 250 255 263 272 278 280 278 275 275 269 257 246 240 242 245 243 241 246 257 268 275 277 275 274 277 280 284 292 297 301 309
181 182 184 186 189 192 195 195 193 193 196 197 198 200 201 199 198 200 202 204 206 208 208 210 213 214 217 220 222 224 225 226 226 227 228 228 228 229 231 232 234 234 234 235 237 238 240 241 242 244 245 245 245 246 251 257 264 271 278 281 278 273 266 255 246 248 255 255 251 250 252 259 267 272 274 275 272 269 268 272 278 286 292 296 303
184 186 187 187 188 191 193 194 195 195 195 195 197 199 199 198 199 201 203 206 208 210 212 213 214 215 218 221 223 225 227 228 228 229 232 233 234 236 237 238 238 238 238 238 239 240 240 242 243 244 245 244 245 248 253 258 262 266 272 275 273 269 266 262 257 258 263 265 266 268 268 269 273 275 276 277 276 272 270 270 273 280 286 290 298
187 187 188 187 188 191 193 193 195 197 197 196 198 198 198 199 202 204 206 207 210 212 214 216 215 216 218 222 225 227 229 230 230 231 234 235 237 240 242 242 242 243 243 244 243 243 242 242 243 244 244 245 247 250 254 258 260 263 267 272 275 275 273 267 260 261 271 280 282 280 276 280 288 291 288 282 277 273 271 269 270 276 282 286 296
187 187 190 193 193 193 193 193 194 196 197 197 198 199 200 201 203 206 207 209 210 213 215 217 217 218 220 223 226 229 230 231 232 233 235 237 240 242 243 244 245 247 249 250 250 249 247 246 245 245 247 248 249 252 256 259 260 261 263 268 272 274 271 265 263 270 278 280 279 276 278 288 297 300 292 277 265 262 265 267 271 276 279 283 294
188 187 193 199 198 196 196 195 195 196 198 199 200 202 202 202 203 205 208 209 210 212 215 218 221 223 224 226 229 231 231 232 233 235 236 238 241 243 245 247 249 251 253 255 256 256 255 252 250 250 251 252 253 255 258 259 259 259 260 262 264 265 266 268 271 274 276 276 276 275 277 284 291 291 279 262 253 258 264 266 270 274 277 283 294
199 195 196 201 203 203 203 201 200 201 202 202 203 204 204 205 206 208 210 213 214 215 218 222 225 227 229 231 232 233 232 232 232 234 236 238 241 244 248 251 252 253 255 257 260 261 260 258 256 254 254 255 255 256 256 255 254 254 255 256 258 262 265 267 269 271 272 273 273 272 273 280 282 276 263 254 253 258 262 264 269 275 280 285 293
203 197 196 200 204 206 206 206 206 206 206 205 206 208 209 210 211 211 212 215 217 219 222 225 228 231 234 235 234 232 230 229 230 233 236 240 242 245 248 251 253 254 255 256 260 262 262 261 259 258 257 256 255 253 252 250 249 248 250 252 256 260 262 263 265 268 269 267 266 269 276 280 274 261 254 253 255 259 265 270 275 281 285 288 291
203 198 198 202 204 204 205 205 206 207 207 207 209 213 215 216 218 219 219 219 221 223 226 229 232 235 238 238 235 232 230 231 232 234 237 242 245 246 247 249 252 255 256 257 259 261 262 262 261 259 258 258 256 254 252 250 247 247 249 253 255 257 258 259 262 266 266 264 263 269 276 278 268 256 254 259 263 269 276 281 283 286 288 286 283